Location: Coupvray
(48.8929°N, 2.7967°E)
Time: 21:08:09
(UTC+00:00)

Cosmos 468 Rocket - Pass Details

Date: 14 July 2020
Orbit: 743 x 780 km, 74.0° (Epoch: 14 August)

Event Time Altitude Azimuth Distance (km) Brightness Sun altitude
Rises 02:32:35 0° 336° (NNW) 3,266 7.7 -11.2°
Reaches altitude 10° 02:34:58 10° 337° (NNW) 2,338 6.9 -11.0°
Maximum altitude 02:40:18 90° 271° (W) 787 4.1 -10.4°
Drops below altitude 10° 02:45:37 10° 159° (SSE) 2,329 6.2 -9.9°
Sets 02:48:00 0° 159° (SSE) 3,252 7.0 -9.6°
